ARIANE 5 DEB (SYLDA)

基本信息
目录编号:
49334
目录名称:
ARIANE 5 DEB (SYLDA)
国际标识:
2021-095C
轨道中心:
EARTH
物体状态:
已陨落(2026-06-30)
发射日期:
2021-10-24 UTC
轨道信息
数据来源: 国际轨道数据
星历时间: 2026-06-26T06:19:00+0800
半长轴: 7275.627km
偏心率: 0.1040304
轨道倾角: 6.113°
近地点辐角: 20.909°
升交点赤经: 321.687°
平近点角: 343.064°
近地点: 140.603km
远地点: 1654.377km
周期: 102.936分钟
每日圈数: 13.989339
详细信息
发射场:
FRGUI
轨道高度:
LEO
数据来源:
AOE Integration Group
参考系:
TEME
时间系统:
UTC
历元类型:
SGP4
2D轨道图
3D轨道图
轨道高度分析图
轨道倾角分析图
轨道综合分析图
查看轨道综合分析图